Location: Doux
(49.5045°N, 4.4321°E)
Time: 14:12:08
(UTC+00:00)

Cosmos 968 Rocket - Pass Details

Date: 23 May 2024
Orbit: 738 x 769 km, 74.0° (Epoch: 18 June)

Event Time Altitude Azimuth Distance (km) Brightness Sun altitude
Exits shadow 02:02:15 17° 196° (SSW) 1,794 4.8 -13.0°
Maximum altitude 02:06:09 79° 112° (ESE) 760 3.5 -12.6°
Drops below altitude 10° 02:11:18 10° 26° (NNE) 2,271 7.4 -12.1°
Sets 02:13:40 0° 25° (NNE) 3,204 8.6 -11.9°
